KMOR

Details ICAO KMOR
Name Moore-Murrell
Region United States
Timezone America/New_York (UTC-4.0)
Plans Departing 2
Arriving 3
Stats Elevation 1,313 ft / 400 m (AMSL)
Location 36.179294° -83.375559°
Runways 1
Magnetic Variation 6.227° W
Sunrise 2018-05-25 10:22:09 UTC / 2018-05-25 06:22:09 Local
Sunset 2018-05-26 00:41:39 UTC / 2018-05-25 20:41:39 Local
Advertisement - Login to hide

Runways

ID Width Length Bearing (true) Bearing (mag) Surface Threshold Offset Overrun Length
05 98 ft / 30 m 5,699 ft / 1,737 m 49.30° 55.53° Asphalt 0 ft / 0 m 0 ft / 0 m
23 98 ft / 30 m 5,699 ft / 1,737 m 229.31° 235.54° Asphalt 0 ft / 0 m 0 ft / 0 m

Approach Navaids

Runway Type Ident Frequency Range Bearing (true) Bearing (mag) Slope Elevation
05 Localiser IMOR 109.50 MHz 18 nm / 33 km 49.28° 55.50° - 1,313 ft / 400 m (AMSL)
05 DME IMOR 109.50 MHz 18 nm / 33 km - - - 1,313 ft / 400 m (AMSL)

Map

Weather


0- 5 10 15 20 25 30 35+ Temperature / ° C

Clouds and Precipitation
Forecast for 2018-05-25 12:00 UTC. Updated 2 hours ago

Ground ~20,000 ft ~40,000 ft Winds

METAR

KMOR 251055Z AUTO 00000KT 10SM FEW065 OVC110 21/19 A3009 RMK A01

TAF

Not found

Frequencies

Recorded 126.72 MHz AWOS 3
Approach 132.80 MHz KNOXVILLE APP/DEP
Unicom 122.80 MHz CTAF/UNICOM
Warning: Do not use this data for real-world aviation or navigation. No guarantee of current accuracy is given.